Location: Lichtensteig
(47.3376°N, 9.0841°E)
Time: 18:44:18
(UTC+00:00)

FENGYUN 1C DEB - Pass Details

Date: 23 September 2021
Orbit: 837 x 877 km, 98.7° (Epoch: 18 October)

Event Time Altitude Azimuth Distance (km) Brightness Sun altitude
Rises 18:25:51 0° 185° (S) 3,449 ? -12.0°
Reaches altitude 10° 18:28:21 10° 192° (SSW) 2,519 ? -12.5°
Maximum altitude 18:33:39 42° 262° (W) 1,239 ? -13.3°
Drops below altitude 10° 18:38:59 10° 333° (NNW) 2,542 ? -14.2°
Sets 18:41:32 0° 340° (NNW) 3,484 ? -14.6°
